Home   Weather   Lanchow   Past weeks

Flag for China Past Weather in Lanchow, Gansu, China — Yesterday and Last 2 Weeks

Now
54 °F

Sunny.


Feels Like: 54 °F
Forecast: 41 / 72 °F
Wind: 1 mph from North

Location: Lanzhou / Zhongchuan

Current Time: Apr 28, 2017 at 10:25:12 am

Latest Report: Apr 28, 2017 at 9:00 am


Visibility: 10 mi

Pressure: 30.21 "Hg (25.15 "Hg at 1531m altitude)

Humidity: 38%

Dew Point: 28 °F

Location of LanchowLocation

Past Weather in Lanchow — Graph

°F

Lanchow Temperature Yesterday

Maximum temperature yesterday: 63 °F (at 2:00 pm)
Minimum temperature yesterday: 30 °F (at 6:00 am)
Average temperature yesterday: 48 °F

High & Low Weather Summary for the Past Weeks

 TemperatureHumidityPressure
High72 °F (Apr 17, 3:00 pm)100% (Apr 17, 3:00 am)30.36 "Hg (Apr 17, 3:00 am)
Low27 °F (Apr 21, 4:00 am)9% (Apr 21, 7:00 pm)29.80 "Hg (Apr 18, 4:00 pm)
Average49 °F47%30.11 "Hg
* Reported Apr 13 9:00 am — Apr 28 9:00 am, Lanchow, Weather by CustomWeather, © 2017

Note: Actual official high and low records may vary slightly from our data, if they occured in-between our weather recording intervals... More about our weather records

Advertising

Lanchow Weather History for the Previous 24 Hours

Scroll right to see more
 ConditionsComfort  
Time TempWeatherWind HumidityBarometerVisibility
9:00 am
Fri, Apr 28
54 °FSunny.1 mph38%30.21 "Hg10 mi
8:00 am46 °FSunny.3 mph57%30.21 "Hg10 mi
7:00 am39 °FClear.3 mph70%30.18 "Hg10 mi
6:00 am37 °FClear.3 mph70%30.15 "Hg10 mi
5:00 am39 °FClear.3 mph65%30.15 "Hg10 mi
4:00 am39 °FClear.3 mph70%30.15 "Hg10 mi
3:00 am45 °FClear.6 mph57%30.15 "Hg10 mi
2:00 am43 °FClear.6 mph61%30.18 "Hg10 mi
1:00 am43 °FClear.3 mph61%30.18 "Hg10 mi
12:00 am46 °FClear.6 mph57%30.18 "Hg10 mi
11:00 pm
Thu, Apr 27
46 °FClear.3 mph53%30.18 "Hg10 mi
10:00 pm54 °FPassing clouds.8 mph41%30.18 "HgN/A
9:00 pm52 °FClear.3 mph44%30.15 "Hg10 mi
8:00 pm55 °FSunny.8 mph38%30.12 "Hg10 mi
7:00 pm61 °FPassing clouds.3 mph25%30.12 "HgN/A
6:00 pm63 °FPassing clouds.3 mph24%30.12 "HgN/A
5:00 pm61 °FPassing clouds.3 mph25%30.12 "HgN/A
4:00 pm63 °FPassing clouds.8 mph25%30.15 "HgN/A
3:00 pm61 °FScattered clouds.6 mph27%30.18 "HgN/A
2:00 pm63 °FScattered clouds.6 mph27%30.21 "HgN/A
1:00 pm57 °FScattered clouds.3 mph33%30.24 "HgN/A
12:00 pm55 °FPassing clouds.3 mph41%30.27 "HgN/A
11:00 am54 °FPassing clouds.6 mph47%30.30 "HgN/A
10:00 am50 °FPassing clouds.6 mph58%30.33 "HgN/A
Weather by CustomWeather, © 2017

See weather overviewHow to use our weather pages